This is the latest recevied weather packets stored in our database for station/object KD1KE. If no packets are shown the sender has not sent any weather packets the latest 1 day(s).
| Time | Temp. | Humidity | Pressure | Rain* | Wind** | Luminosity | Snow |
|---|---|---|---|---|---|---|---|
| 1778019701 | 18.89° C | 63% | 1003.4 hPa | 0 mm | 1.79 m/s, 253° | - | - |
| 1778019311 | 18.89° C | 62% | 1003.4 hPa | 0 mm | 1.79 m/s, 248° | - | - |
| 1778019160 | 18.89° C | 62% | 1003.4 hPa | 0 mm | 1.34 m/s, 236° | - | - |
| 1778018652 | 18.89° C | 62% | 1003.3 hPa | 0 mm | 1.34 m/s, 212° | - | - |
| 1778018621 | 18.89° C | 62% | 1003.3 hPa | 0 mm | 1.79 m/s, 219° | - | - |
| 1778018079 | 19.44° C | 61% | 1003.3 hPa | 0 mm | 1.79 m/s, 235° | - | - |
| 1778017991 | 19.44° C | 61% | 1003.3 hPa | 0 mm | 1.79 m/s, 237° | - | - |
| 1778017539 | 20° C | 60% | 1003.3 hPa | 0 mm | 1.79 m/s, 245° | - | - |
| 1778017332 | 20° C | 60% | 1003.2 hPa | 0 mm | 1.79 m/s, 240° | - | - |
| 1778016998 | 20° C | 60% | 1003.1 hPa | 0 mm | 1.79 m/s, 237° | - | - |
| 1778016671 | 20.56° C | 59% | 1003.3 hPa | 0 mm | 1.34 m/s, 226° | - | - |
| 1778016460 | 20.56° C | 59% | 1003.2 hPa | 0 mm | 1.34 m/s, 225° | - | - |
| 1778016012 | 21.11° C | 58% | 1003.1 hPa | 0 mm | 0.89 m/s, 241° | - | - |
| 1778015919 | 21.11° C | 58% | 1003.2 hPa | 0 mm | 0.89 m/s, 245° | - | - |
| 1778015382 | 21.11° C | 58% | 1003.4 hPa | 0 mm | 1.34 m/s, 223° | - | - |
| 1778015351 | 21.11° C | 58% | 1003.4 hPa | 0 mm | 1.34 m/s, 223° | - | - |
| 1778014842 | 21.11° C | 57% | 1003.3 hPa | 0 mm | 0.45 m/s, 217° | - | - |
| 1778014690 | 21.11° C | 57% | 1003.4 hPa | 0 mm | 0 m/s | - | - |
| 1778014303 | 21.67° C | 57% | 1003.2 hPa | 0 mm | 0.89 m/s, 227° | - | - |
| 1778014031 | 21.67° C | 56% | 1003.3 hPa | 0 mm | 0.89 m/s, 229° | - | - |
| 1778013759 | 21.67° C | 57% | 1003.3 hPa | 0 mm | 0.89 m/s, 237° | - | - |
| 1778013372 | 21.67° C | 56% | 1003.3 hPa | 0 mm | 0.45 m/s, 244° | - | - |
| 1778012711 | 22.22° C | 56% | 1003.4 hPa | 0 mm | 1.34 m/s, 242° | - | - |
| 1778012680 | 22.22° C | 56% | 1003.5 hPa | 0 mm | 1.34 m/s, 231° | - | - |
| 1778012139 | 22.22° C | 55% | 1003.4 hPa | 0 mm | 2.24 m/s, 235° | - | - |
* Rain latest hour (hover to see other rain measurements)
** Current wind speed in m/s (hover to see current wind gust speed)